CDT,Max TemperatureF,Mean TemperatureF,Min TemperatureF,Max Dew PointF,MeanDew PointF,Min DewpointF,Max Humidity, Mean Humidity, Min Humidity, Max Sea Level PressureIn, Mean Sea Level PressureIn, Min Sea Level PressureIn, Max VisibilityMiles, Mean VisibilityMiles, Min VisibilityMiles, Max Wind SpeedMPH, Mean Wind SpeedMPH, Max Gust SpeedMPH,PrecipitationIn, CloudCover, Events, WindDirDegrees
2011-10-1,76,61,46,49,45,41,93,61,29,30.19,30.13,30.06,10,10,10,17,5,23,0.00,0,,18
2011-10-2,73,59,45,47,44,41,86,60,34,30.26,30.19,30.15,10,10,10,16,5,21,0.00,0,,16
2011-10-3,76,60,43,49,43,34,93,59,25,30.28,30.22,30.18,10,10,10,10,2,15,0.00,0,,20
2011-10-4,81,63,45,55,48,43,93,60,26,30.28,30.22,30.17,10,10,10,12,2,14,T,0,,37
2011-10-5,84,67,49,57,52,48,96,65,33,30.22,30.16,30.10,10,10,7,12,2,14,0.00,0,,89
2011-10-6,83,68,53,62,56,53,93,66,39,30.19,30.15,30.12,10,10,5,15,5,20,0.00,0,,117
2011-10-7,84,71,58,60,57,54,78,61,43,30.25,30.19,30.15,10,10,10,18,7,24,0.00,0,,102
2011-10-8,84,72,60,62,58,53,78,62,46,30.23,30.18,30.12,10,10,10,20,8,24,0.00,0,,96
2011-10-9,83,73,62,62,58,54,87,66,45,30.16,30.10,30.02,10,10,10,16,8,22,0.00,1,,83
2011-10-10,81,70,59,64,62,57,97,76,54,30.06,29.99,29.93,10,10,10,14,5,29,0.00,2,,34
2011-10-11,74,68,62,64,63,61,93,81,68,29.95,29.91,29.86,10,10,10,18,4,28,0.00,7,,20
2011-10-12,82,71,60,64,63,59,100,77,54,29.89,29.82,29.73,10,6,0,25,1,43,0.75,5,Fog-Rain-Thunderstorm,198
2011-10-13,78,66,54,63,59,54,100,74,47,29.88,29.79,29.74,10,7,1,16,4,29,0.00,3,,304
2011-10-14,82,66,49,57,51,44,100,64,28,30.03,29.95,29.88,10,8,1,8,0,0,0.00,0,,295
2011-10-15,84,67,49,59,54,49,96,65,33,30.12,30.08,30.04,10,10,9,8,0,0,0.00,0,,99
2011-10-16,87,69,51,58,53,49,100,64,27,30.15,30.08,30.00,10,9,3,8,0,0,0.00,0,,147
2011-10-17,86,70,53,60,55,48,93,61,29,30.01,29.91,29.78,10,10,10,13,4,21,0.00,0,,152
2011-10-18,78,63,47,65,55,41,93,75,56,29.86,29.77,29.65,10,8,0,25,9,33,T,5,Rain,298
2011-10-19,58,48,38,43,38,34,92,68,43,30.01,29.88,29.81,10,10,10,18,8,28,0.00,2,,310
2011-10-20,64,49,34,39,32,25,100,62,23,30.12,30.07,30.01,10,10,10,23,0,0,0.00,0,,281
2011-10-21,72,54,35,42,36,30,92,59,26,30.26,30.19,30.14,10,10,10,13,2,21,0.00,0,,334
2011-10-22,75,58,41,48,42,38,96,63,29,30.22,30.14,30.08,10,10,7,9,2,16,0.00,1,,67
2011-10-23,74,62,49,57,49,43,93,72,51,30.10,30.06,30.00,10,10,9,14,4,18,T,4,,132
2011-10-24,74,61,48,55,52,48,100,72,44,30.24,30.17,30.10,10,7,0,16,4,,0.00,3,Fog,349
2011-10-25,81,62,42,53,47,43,100,63,26,30.24,30.17,30.07,10,7,0,12,4,22,0.00,0,Fog,156
2011-10-26,80,64,48,57,52,48,96,65,33,30.09,30.01,29.92,10,9,6,10,3,16,0.00,0,,165
2011-10-27,81,68,54,62,57,54,93,71,48,29.95,29.92,29.87,10,10,6,17,5,25,0.00,4,,5
2011-10-28,59,52,44,55,49,40,96,84,71,30.17,30.04,29.92,10,9,4,16,9,22,0.19,7,Rain,347
2011-10-29,66,51,35,40,36,29,92,60,27,30.26,30.18,30.14,10,10,10,17,5,26,0.00,0,,355
2011-10-30,66,49,32,41,35,30,100,64,28,30.27,30.20,30.16,10,10,10,12,0,0,0.00,0,,143
2011-10-31,73,55,36,45,39,36,92,61,29,30.24,30.20,30.15,10,10,8,10,2,14,0.00,0,,327